Regional Weather Roundup
Issued by NWS Cleveland, OH

Home | Current Version | Previous Version | Graphics & Text | Print | Product List | Glossary On
Versions: 1 2 3 4 5 6 7 8 9 10 11 12 13 14 15 16 17 18 19 20 21 22 23 24 25 26 27 28 29 30 31 32 33 34 35 36 37 38 39 40 41 42 43 44 45 46 47 48 49 50
000
ASUS41 KCLE 280610
RWRCLE
OHIO REGIONAL WEATHER ROUNDUP
NATIONAL WEATHER SERVICE CLEVELAND, OH
100 AM EST SAT FEB 28 2015

NOTE: "FAIR" INDICATES FEW OR NO CLOUDS BELOW 12,000 FEET WITH NO
SIGNIFICANT WEATHER AND/OR OBSTRUCTIONS TO VISIBILITY.

OHZ001>008-015>018-024>027-034-035-043-044-280700-
   NORTHWEST OHIO

CITY           SKY/WX    TMP DP  RH WIND       PRES   REMARKS
DEFIANCE       PTCLDY    -2  -7  79 CALM      30.68S
FINDLAY        PTCLDY    -1 -10  65 CALM      30.66S
TOLEDO EXPRESS FAIR      -3  -8  79 CALM      30.67S
TOLEDO EXEC    PTCLDY     1  -7  68 SW3       30.69S
LIMA           MOCLDY     6  -5  60 S8        30.65S WCI  -7
$$

OHZ009>014-019>023-028>033-038-089-280700-
   NORTHEAST OHIO

CITY           SKY/WX    TMP DP  RH WIND       PRES   REMARKS
CLE-HOPKINS    PTCLDY     1  -7  68 SW5       30.70S WCI  -9
CLE-LAKEFRONT  CLEAR      8  -3  61 S3        30.68S
CUY CO. ARPT   NOT AVBL
LORAIN-ELYRIA  PTCLDY    -6 -10  83 S3        30.68R
ASHTABULA      MOCLDY    -9 -15  75 CALM      30.66S
AKRON-CANTON   MOCLDY     5  -5  63 S3        30.64S
WOOSTER        MOCLDY   -10 -15  78 CALM      30.66R
MANSFIELD      MOCLDY    -4  -7  87 S5        30.63R WCI -15
YOUNGSTOWN     MOCLDY    -1  -5  82 SE3       30.64R
$$

OHZ042-051>053-060>062-070>072-077>081-280700-
  SOUTHWEST OHIO

CITY           SKY/WX    TMP DP  RH WIND       PRES   REMARKS
CINC-COVINGTON PTCLDY    13   0  56 E5        30.65S WCI   5
CINC-LUNKEN    PTCLDY     9   3  77 CALM      30.71R
HAMILTON       PTCLDY     3  -2  79 CALM      30.69S
DAYTON         MOCLDY    11   0  61 SE5       30.65S WCI   3
WRIGHT-PAT AFB CLEAR      9   2  72 NE2       30.67R
DAYTON GENERAL FAIR      11  -1  58 E5        30.65R WCI   3
WILMINGTON     MOCLDY     8  -4  58 E6        30.64S WCI  -2
$$

OHZ036-037-039>041-045>050-054>059-063>069-073>076-082>088-280700-
  CENTRAL AND SOUTHEAST OHIO

CITY           SKY/WX    TMP DP  RH WIND       PRES   REMARKS
COLUMBUS       CLOUDY     8  -1  66 CALM      30.67S
OSU AIRPORT    MOCLDY     7  -2  66 N3        30.66S
BOLTON FIELD   MOCLDY   N/A N/A N/A CALM      30.67S
RICKENBACK AFB MOCLDY     7  -2  66 CALM      30.68R
NEWARK         FAIR       1  -4  79 CALM      30.67R
MARION         MOCLDY    -5 -11  75 CALM      30.66S
LANCASTER      PTCLDY     5  -1  76 CALM      30.67S
ZANESVILLE     FAIR       8   1  73 CALM      30.67R
NEW PHILLY     MOCLDY     3  -4  72 CALM      30.68F
$$


USA.gov is the U.S. government's official web portal to all federal, state and local government web resources and services.